{"data":{"norad_id":40069,"epoch":"2026-09-20T04:06:47.309760Z","epoch_age_seconds":42701,"freshness":"FRESH","line1":"1 40069U 14037A   26263.17138090  .00000123  00000+0  75309-4 0  9995","line2":"2 40069  98.5244 235.5994 0006769 114.3646 245.8239 14.21485089632818","mean_motion":14.21485089,"eccentricity":0.0006769,"inclination_deg":98.5244,"raan_deg":235.5994,"arg_perigee_deg":114.3646,"mean_anomaly_deg":245.8239,"bstar":7.5309e-5,"rev_number":63281,"period_min":101.30250476373,"perigee_km":815.46206722517,"apogee_km":825.20735822986,"semimajor_km":7198.4717127275,"source":"CELESTRAK","updated_at":"2026-09-20T09:00:33.215687Z"}}